Regional Weather Roundup
Issued by NWS

Home | Current Version | Previous Version | Graphics & Text | Print | Product List | Glossary On
Versions: 1 2 3 4 5 6 7 8 9 10 11 12 13 14 15 16 17 18 19 20 21 22 23 24 25 26 27 28 29 30 31 32 33 34 35 36 37 38 39 40 41 42 43 44 45 46 47 48 49 50
000
ASUS43 KLSX 131507
RWRMO

WEATHER SUMMARY FOR MISSOURI
NATIONAL WEATHER SERVICE SPRINGFIELD MO
1000 AM CDT SUN JUL 13 2014

NOTE: "FAIR" INDICATES FEW OR NO CLOUDS BELOW 12,000 FEET WITH NO
       SIGNIFICANT WEATHER AND/OR OBSTRUCTIONS TO VISIBILITY.
       CURRENT SKY AND/OR WEATHER CONDITIONS ARE NOT AVAILABLE FOR
       CHILLICOTHE AND FARMINGTON.

MOZ001>031-035>038-043-044-053-054-131600-
...NORTHERN AND WESTERN MISSOURI...

CITY           SKY/WX    TMP DP  RH WIND       PRES   REMARKS
KANSAS CTY INT PTSUNNY   75  72  90 NW8       30.03R
KANSAS C DTWN  CLOUDY    75  71  87 CALM      30.02R
LEE`S SUMMIT   CLOUDY    75  69  81 NE3       30.02S
ST JOSEPH      CLOUDY    75  71  87 N6        30.04S
CHILLICOTHE      N/A     75  71  87 NW3       30.03S
KIRKSVILLE     CLOUDY    75  69  81 N3        30.03F

$$
MOZ066>068-077>081-088>096-101>105-131600-
...SOUTHWEST MISSOURI...

CITY           SKY/WX    TMP DP  RH WIND       PRES   REMARKS
SPRINGFIELD    SUNNY     83  68  60 CALM      30.08F
JOPLIN         SUNNY     86  65  49 SW16      30.06S

$$
MOZ032>034-039>042-045>050-055>058-069>072-131600-
...CENTRAL MISSOURI...

CITY           SKY/WX    TMP DP  RH WIND       PRES   REMARKS
COLUMBIA       PTSUNNY   80  70  71 NW7       30.03F
JEFFERSON CITY PTSUNNY   81  69  67 N9        30.02S
ROLLA          PTSUNNY   82  67  60 W10       30.03F
SEDALIA        PTSUNNY   79  71  76 E5        30.01F
WHITEMAN AFB   LGT RAIN  76  64  68 E5        30.01F
OSAGE BEACH    MOSUNNY   82  66  57 SW7       30.03F

$$
MOZ051-052-059>065-131600-
...EAST CENTRAL MISSOURI...

CITY           SKY/WX    TMP DP  RH WIND       PRES   REMARKS
ST LOUIS INTL  PTSUNNY   85  70  60 CALM      30.00F
SPIRIT OF STL  PTSUNNY   82  71  69 SW7       29.99S
ST CHARLES     PTSUNNY   83  70  64 VRB6      29.98S

$$
MOZ072>076-082>087-097>100-106>115-131600-
...SOUTH CENTRAL AND SOUTHEAST MISSOURI...

CITY           SKY/WX    TMP DP  RH WIND       PRES   REMARKS
CAPE GIRARDEAU PTSUNNY   83  74  74 SW7       30.04S
FARMINGTON     MOSUNNY   82  70  65 W9        30.06F
POPLAR BLUFF   PTSUNNY   84  73  69 SW8       30.04F HX  90
WEST PLAINS    CLOUDY    78  69  73 W7        30.11R

$$


USA.gov is the U.S. government's official web portal to all federal, state and local government web resources and services.